• Processing (Info)

  • MPEC 2023-K19 : 2023 JV3

    The following Minor Planet Electronic Circular may be linked-to from your own Web pages, but must not otherwise be redistributed electronically.

    A form allowing access to any MPEC is at the bottom of this page.


    Read MPEC 2023-K18 Read MPEC 2023-K20


    M.P.E.C. 2023-K19                                  Issued 2023 May 17, 04:49 UT
    
         The Minor Planet Electronic Circulars contain information on unusual
             minor planets, routine data on comets and natural satellites,
             and occasional editorial announcements.  They are published
        on behalf of Division F of the International Astronomical Union by the
              Minor Planet Center, Smithsonian Astrophysical Observatory,
                              Cambridge, MA 02138, U.S.A.
    			  
                 Prepared using the Tamkin Foundation Computer Network
    
                                  MPC@CFA.HARVARD.EDU
                URL https://www.minorplanetcenter.net/    ISSN 1523-6714
    
                                    2023 JV3                                 
    
    
    Observations:
         K23J03V  C2023 04 24.43970614 11 26.095-27 29 36.02         21.56GVEK019F52
         K23J03V  C2023 04 24.44982114 11 24.856-27 29 20.74         21.73GVEK019F52
         K23J03V  C2023 04 24.45992314 11 23.652-27 29 06.35         21.81GVEK019F52
         K23J03V  C2023 04 24.47002414 11 22.419-27 28 51.34         22.08GVEK019F52
         K23J03V* C2023 05 13.31623313 35 25.721-17 55 56.50         21.76wXEK019F52
         K23J03V  C2023 05 13.32705113 35 24.573-17 55 34.72         22.24wXEK019F52
         K23J03V  C2023 05 13.33788413 35 23.399-17 55 12.25         22.03wXEK019F52
         K23J03V  C2023 05 13.45332013 35 10.968-17 51 15.38         21.72GVEK019F52
         K23J03V  C2023 05 13.45395313 35 10.905-17 51 13.90         21.72GVEK019F52
         K23J03V |C2023 05 14.05691 13 34 10.34 -17 30 26.9          21.5 GVEK019807
         K23J03V |C2023 05 14.06800 13 34 09.17 -17 30 04.2          21.6 GVEK019807
         K23J03V |C2023 05 14.07910 13 34 07.99 -17 29 41.6          21.4 GVEK019807
         K23J03V KC2023 05 15.45772613 31 50.89 -16 42 25.2          21.5 GVEK019474
         K23J03V KC2023 05 15.46124413 31 50.56 -16 42 18.4          21.2 GVEK019474
         K23J03V KC2023 05 15.46476213 31 50.19 -16 42 10.5          21.7 GVEK019474
         K23J03V KC2023 05 15.46828113 31 49.84 -16 42 03.2          21.3 GVEK019474
    
    Observer details:
    474 Mount John Observatory, Lake Tekapo.  Observers A. C. Gilmore, P. M.
        Kilmartin.  Measurer P. M. Kilmartin.  1.0-m f/7.7 reflector + CCD.
    807 Cerro Tololo Observatory, La Serena.  Observers T. Linder, R. Holmes, L.
        Horn.  1.00-m f/10.0 astrograph + CCD.
    F52 Pan-STARRS 2, Haleakala.  Observers J. Bulger, K. Chambers, T. Dukes, T.
        Lowe, A. Schultz, I. Smith.  Measurers S. Chastel, J. Fairlamb, M. Huber,
        Y. Ramanjooloo, R. Wainscoat, R. Weryk, K. Chambers, T. de Boer, H. Gao,
        C.-C. Lin, E. Magnier.  1.8-m Ritchey-Chretien + CCD.
    
    Orbital elements:
    2023 JV3                                                 Earth MOID = 0.0834 AU
    Epoch 2023 Feb. 25.0 TT = JDT 2460000.5                 Bell                    
    M 221.07729              (2000.0)            P               Q                  
    n   0.59867264     Peri.  128.83900     +0.95131554     +0.06281552             
    a   1.3942579      Node   229.79456     -0.10675975     +0.98556238             
    e   0.4349985      Incl.   23.27207     +0.28913855     +0.15722916             
    P   1.65           H   20.82          G   0.15           U   7                  
    Residuals in seconds of arc
    230424 F52  0.2+  0.0     230513 F52  0.1+  0.1+    230515 474  0.2-  0.0
    230424 F52  0.1-  0.3+    230513 F52  0.1+  0.1-    230515 474  0.2+  0.4-
    230424 F52  0.1+  0.2-    230513 F52  0.1+  0.1+    230515 474  0.0   0.2+
    230424 F52  0.2-  0.1-    230514 807  0.0   0.0     230515 474  0.1+  0.3+
    230513 F52  0.1-  0.1+    230514 807  0.0   0.0
    230513 F52  0.2+  0.2-    230514 807  0.1-  0.1-
    
    Ephemeris:
    2023 JV3                 a,e,i = 1.39, 0.43, 23                  q = 0.7878
    Date    TT    R. A. (2000) Decl.     Delta      r    Elong.  Phase     V
    2023 04 17    14 24 59.0 -30 09 48   0.7993  1.7679   157.2    12.7    22.3
    ...
    2023 05 02    13 56 36.7 -24 03 06   0.7074  1.7050   167.4     7.4    21.8
    ...
    2023 05 10    13 41 18.0 -19 48 04   0.6836  1.6683   160.0    12.0    21.8
    ...
    2023 05 16    13 30 58.5 -16 23 57   0.6771  1.6393   151.8    16.9    21.9
    2023 05 17    13 29 23.8 -15 49 41   0.6769  1.6344   150.4    17.8    22.0
    2023 05 18    13 27 51.8 -15 15 28   0.6770  1.6294   149.0    18.6    22.0
    ...
    2023 05 24    13 19 43.4 -11 53 52   0.6821  1.5988   140.5    23.8    22.1
    ...
    2023 06 01    13 11 57.3 -07 44 51   0.6997  1.5561   129.6    30.1    22.3
    ...
    2023 06 16    13 06 57.1 -01 29 57   0.7529  1.4703   111.6    40.0    22.6
    
    M. P. C. Staff               (C) Copyright 2023 MPC           M.P.E.C. 2023-K19
    


    Read MPEC 2023-K18 Read MPEC 2023-K20


    MPEC number:

    Enter an MPEC number in one of the following forms:

    • 1997-B01 (the full form)
    • J97B01 (the packed version of the full form)
    • B01 (the abbreviated form)